Location: Canet
(43.3261°N, 5.3723°E)
Time: 18:31:31
(UTC+00:00)

Nadezhda 4 Rocket - Pass Details

Date: 24 January 2021
Orbit: 949 x 992 km, 83.0° (Epoch: 08 March)

Event Time Altitude Azimuth Distance (km) Brightness Sun altitude
Rises 16:59:19 0° 164° (SSE) 3,670 7.1 -4.1°
Reaches altitude 10° 17:01:57 10° 158° (SSE) 2,721 6.4 -4.5°
Maximum altitude 17:07:45 43° 89° (E) 1,346 4.4 -5.5°
Drops below altitude 10° 17:13:32 10° 21° (NNE) 2,710 6.0 -6.5°
Sets 17:16:09 0° 15° (NNE) 3,654 6.7 -6.9°
